Weather History for Salamanca, Spain

Change the Weather History Date:

Monday, June 17, 2013

  Actual Average Record
Temperature  
Mean Temperature 60 °F -  
Max Temperature 68 °F - - ()
Min Temperature 53 °F - - ()
Degree Days  
Heating Degree Days 4    
Growing Degree Days 10 (Base 50)    
Moisture  
Dew Point 45 °F    
Average Humidity 60    
Maximum Humidity 94    
Minimum Humidity 26    
Precipitation  
Precipitation 0.02 in 0.03 in - ()
Sea Level Pressure  
Sea Level Pressure 29.87 in    
Wind  
Wind Speed 11 mph ()    
Max Wind Speed 21 mph    
Max Gust Speed 29 mph    
Visibility 6.3 miles    
Events Rain    
T = Trace of Precipitation, MM = Missing Value Source: Averaged Metar Reports

Daily Weather History Graph

Daily Weather History Graph

Search for Another Location

Airport:

Trip Planner

Search our weather history database for the weather conditions in past years. The results will help you decide how hot, cold, wet, or windy it might be!

Date:

Astronomy

Jun. 17, 2013 Rise Set
Actual Time 6:49 AM CEST 9:56 PM CEST
Civil Twilight 6:15 AM CEST 10:30 PM CEST
Nautical Twilight 5:32 AM CEST 11:13 PM CEST
Astronomical Twilight 4:42 AM CEST 12:03 AM CEST
Moon 3:17 PM CEST (6/17) 2:20 AM CEST (6/17)
Length of Visible Light 16h 14m
Length of Day
15h 06m
First Quarter, 57% of the Moon is Illuminated
Jun 17
First Quarter
Jun 23
Full
Jun 30
Last Quarter
Jul 8
New
Jul 16
First Quarter

Hourly Weather History & Observations

Time (CEST) Temp. Dew Point Humidity Pressure Visibility Wind Dir Wind Speed Gust Speed Precip Events Conditions
12:00 AM 66.2 °F 41.0 °F 40% 29.86 in - West 9.2 mph - N/A   Clear
12:30 AM 64.4 °F 44.6 °F 49% 29.86 in - West 11.5 mph - N/A   Clear
1:00 AM 64.4 °F 44.6 °F 49% 29.86 in - West 12.7 mph - N/A   Clear
1:30 AM 60.8 °F 46.4 °F 59% 29.86 in - West 8.1 mph - N/A   Clear
2:00 AM 61 °F 47 °F 51%  in 9 mi West 9.2 mph - -   Partly Cloudy
2:00 AM 60.8 °F 48.2 °F 63% 29.86 in - West 9.2 mph - N/A   Clear
2:30 AM 59.0 °F 50.0 °F 72% 29.86 in - West 9.2 mph - N/A   Clear
3:00 AM 57.2 °F 50.0 °F 77% 29.86 in - WSW 8.1 mph - N/A   Clear
3:30 AM 57.2 °F 50.0 °F 77% 29.86 in - WSW 6.9 mph - N/A   Clear
4:00 AM 57.2 °F 50.0 °F 77% 29.86 in - West 4.6 mph - N/A   Clear
4:30 AM 57.2 °F 50.0 °F 77% 29.83 in - WSW 4.6 mph - N/A   Clear
5:00 AM 57.2 °F 50.0 °F 77% 29.83 in - SW 4.6 mph - N/A   Clear
5:30 AM 59.0 °F 50.0 °F 72% 29.83 in - WSW 8.1 mph - N/A   Clear
6:00 AM 59.0 °F 51.8 °F 77% 29.83 in 6.2 mi West 10.4 mph - N/A   Partly Cloudy
6:30 AM 59.0 °F 53.6 °F 82% 29.83 in 6.2 mi West 9.2 mph - N/A   Partly Cloudy
7:00 AM 59.0 °F 51.8 °F 77% 29.83 in 5.0 mi West 10.4 mph - N/A   Scattered Clouds
7:30 AM 55.4 °F 53.6 °F 94% 29.83 in 5.0 mi West 10.4 mph - N/A Rain Rain
8:00 AM 56 °F 54 °F 91%  in 9 mi West 11.5 mph - - Rain Light Rain
8:00 AM 55.4 °F 53.6 °F 94% 29.83 in 6.2 mi West 11.5 mph - N/A Rain Light Rain
8:30 AM 55.4 °F 53.6 °F 94% 29.83 in 6.2 mi West 9.2 mph - N/A Rain Light Rain
9:00 AM 55.4 °F 51.8 °F 88% 29.83 in 3.7 mi West 16.1 mph - N/A Rain Light Rain
9:30 AM 55.4 °F 53.6 °F 94% 29.86 in 5.0 mi West 11.5 mph - N/A Rain Light Rain
10:00 AM 55.4 °F 53.6 °F 94% 29.86 in 5.0 mi West 11.5 mph - N/A Rain Light Rain
10:30 AM 55.4 °F 51.8 °F 88% 29.86 in 5.0 mi West 16.1 mph - N/A Rain Light Rain
11:00 AM 55.4 °F 51.8 °F 88% 29.86 in 6.2 mi West 19.6 mph - N/A   Mostly Cloudy
11:30 AM 53.6 °F 48.2 °F 82% 29.89 in 6.2 mi WNW 20.7 mph - N/A   Mostly Cloudy
12:00 PM 57.2 °F 44.6 °F 63% 29.89 in 6.2 mi West 18.4 mph - N/A   Scattered Clouds
12:30 PM 59.0 °F 46.4 °F 63% 29.89 in 6.2 mi West 13.8 mph - N/A   Scattered Clouds
1:00 PM 60.8 °F 42.8 °F 52% 29.92 in 6.2 mi West 13.8 mph - N/A   Scattered Clouds
1:30 PM 60.8 °F 41.0 °F 48% 29.92 in 6.2 mi West 15.0 mph 28.8 mph N/A   Scattered Clouds
2:00 PM 63 °F 41 °F 33%  in 9 mi West 17.3 mph - -   Partly Cloudy
2:00 PM 62.6 °F 41.0 °F 45% 29.92 in 6.2 mi West 17.3 mph - N/A   Scattered Clouds
2:30 PM 62.6 °F 41.0 °F 45% 29.92 in 6.2 mi West 17.3 mph - N/A   Scattered Clouds
3:00 PM 64.4 °F 35.6 °F 34% 29.92 in 6.2 mi West 17.3 mph - N/A   Scattered Clouds
3:30 PM 64.4 °F 37.4 °F 37% 29.92 in 6.2 mi West 19.6 mph - N/A   Scattered Clouds
4:00 PM 66.2 °F 35.6 °F 32% 29.92 in 6.2 mi WNW 16.1 mph - N/A   Partly Cloudy
4:30 PM 64.4 °F 33.8 °F 32% 29.89 in 6.2 mi West 17.3 mph - N/A   Partly Cloudy
5:00 PM 64.4 °F 35.6 °F 34% 29.89 in 6.2 mi West 17.3 mph - N/A   Partly Cloudy
5:30 PM 64.4 °F 37.4 °F 37% 29.89 in 6.2 mi West 11.5 mph 26.5 mph N/A   Partly Cloudy
6:00 PM 66.2 °F 35.6 °F 32% 29.89 in 6.2 mi West 16.1 mph - N/A   Partly Cloudy
6:30 PM 66.2 °F 35.6 °F 32% 29.89 in 6.2 mi West 15.0 mph - N/A   Partly Cloudy
7:00 PM 64.4 °F 35.6 °F 34% 29.89 in 6.2 mi West 15.0 mph 26.5 mph N/A   Partly Cloudy
7:30 PM 64.4 °F 37.4 °F 37% 29.86 in 6.2 mi West 15.0 mph - N/A   Partly Cloudy
8:00 PM 64 °F 38 °F 26%  in 9 mi West 13.8 mph - -   Scattered Clouds
8:00 PM 62.6 °F 37.4 °F 39% 29.89 in - WNW 15.0 mph - N/A   Clear
8:30 PM 60.8 °F 39.2 °F 45% 29.89 in - WNW 13.8 mph - N/A   Clear
9:00 PM 60.8 °F 39.2 °F 45% 29.89 in - WNW 13.8 mph - N/A   Clear
9:30 PM 59.0 °F 39.2 °F 48% 29.89 in - WNW 12.7 mph - N/A   Clear
10:00 PM 55.4 °F 41.0 °F 58% 29.89 in - WNW 12.7 mph - N/A   Clear
10:30 PM 55.4 °F 42.8 °F 63% 29.92 in - WNW 13.8 mph - N/A   Clear
11:00 PM 55.4 °F 42.8 °F 63% 29.92 in - WNW 12.7 mph - N/A   Clear
11:30 PM 53.6 °F 42.8 °F 67% 29.92 in - West 9.2 mph - N/A   Clear